Location: Berduj
(43.0019°N, 22.3781°E)
Time: 19:44:27
(UTC+00:00)

Envisat - Pass Details

Date: 19 October 2019
Orbit: 764 x 766 km, 98.1° (Epoch: 11 November)

Event Time Altitude Azimuth Distance (km) Brightness Sun altitude
Rises 16:25:19 0° 162° (SSE) 3,219 6.1 -8.6°
Reaches altitude 10° 16:27:36 10° 161° (SSE) 2,297 5.3 -9.0°
Maximum altitude 16:32:40 81° 75° (ENE) 781 3.0 -10.0°
Drops below altitude 10° 16:37:46 10° 349° (N) 2,312 5.6 -10.9°
Sets 16:40:05 0° 349° (NNW) 3,243 6.4 -11.3°
